リニア彗星

C/2007 O1 ( LINEAR )

English version
Home page
Total 6,336 html files since Dec. 4, 1995
Updated on December 30, 2007

---------------------------------------------------------------------

・ プロフィール

発見日 2007年7月17日
発見光度 17.2等
発見者 Lincoln Laboratory Near-Earth Asteroid Research project

・ 写真集

・ 軌道要素

The following orbital elements are taken from MPC 60282:

Epoch 2007 May 20.0 TT = JDT 2454240.5
T 2007 June 3.3049 TT                                   MPC
q   2.876710             (2000.0)            P               Q
z  -0.001893       Peri.  159.4013      +0.1263528      +0.9202900
 +/-0.000044       Node   116.2349      -0.9580912      +0.2099538
e   1.005445       Incl.   24.3805      -0.2570917      -0.3301300
From 95 observations 2006 Apr. 2-2007 July 24, mean residual 0".7.

・ 星図

・ 光度変化

        m1 = 11.0 + 5 logΔ + 7.5 log r

---------------------------------------------------------------------

軌道要素はMPCのEphemerides and Orbital Elementsに掲載されたものです。
星図は StellaNavigator Ver.2.0 for Windows (アストロアーツ 編著 / アスキー出版局刊) で作成したものです。
光度グラフはComet for Windowsで作成したものです。

---------------------------------------------------------------------

Copyright(C) 1995-2008 Seiichi Yoshida (comet@aerith.net). All rights reserved.